Regional Weather Roundup
Issued by NWS

Home | Current Version | Previous Version | Graphics & Text | Print | Product List | Glossary On
Versions: 1 2 3 4 5 6 7 8 9 10 11 12 13 14 15 16 17 18 19 20 21 22 23 24 25 26 27 28 29 30 31 32 33 34 35 36 37 38 39 40 41 42 43 44 45 46 47 48 49 50
000
ASUS45 KBOU 130010
RWRCO

WEATHER ROUNDUP FOR COLORADO
NATIONAL WEATHER SERVICE DENVER/BOULDER CO
600 PM MDT SAT JUL 12 2014

NOTE: "FAIR" INDICATES FEW OR NO CLOUDS BELOW 12000 FEET WITH NO
SIGNIFICANT WEATHER AND/OR OBSTRUCTIONS TO VISIBILITY.

COZ001>005-013-030-031-130100-
...NORTHWEST COLORADO...

CITY           SKY/WX    TMP DP  RH WIND       PRES   REMARKS
CRAIG          MOSUNNY   79  50  36 N5        30.25F
HAYDEN         SUNNY     81  48  32 E5        30.28S
MEEKER         MOSUNNY   85  47  26 NE13      30.25F
MOUNT WERNER   NOT AVBL
STEAMBOAT SPGS SUNNY     80  52  38 W8        30.31S
WALDEN         MOSUNNY   70  46  43 NE12      30.43F
$$

COZ006>008-011-130100-
...WEST CENTRAL VALLEYS...

CITY           SKY/WX    TMP DP  RH WIND       PRES   REMARKS
GRAND JUNCTION MOSUNNY   94  46  19 E6G16     30.08F
MONTROSE       MOSUNNY   91  43  18 NW12      30.16F
EAGLE          MOSUNNY   77  54  44 SW7       30.31S
RIFLE          MOSUNNY   86  52  30 E7        30.16F
DELTA          PTSUNNY   96  47  18 NE15G31   30.10F
NUCLA          MOSUNNY   91  43  18 NE7       30.21F
$$

COZ017>023-064>068-130100-
...SOUTHWEST COLORADO...

CITY           SKY/WX    TMP DP  RH WIND       PRES   REMARKS
DURANGO        CLOUDY    69  53  56 N17       30.30F
CORTEZ         SUNNY     81  52  36 NE14      30.21S
PAGOSA SPRINGS CLOUDY    67  49  53 S3        30.38F
TELLURIDE      PTSUNNY   64  52  63 CALM      30.49S
WOLF CREEK PAS NOT AVBL
$$

COZ009-010-012-014-032>034-037-058>063-130100-
...CENTRAL COLORADO...

CITY           SKY/WX    TMP DP  RH WIND       PRES   REMARKS
ASPEN          PTSUNNY   79  49  34 W9        30.34F
BUENA VISTA    PTSUNNY   69  47  45 S16G25    30.42R
COPPER MTN     PTSUNNY   64  39  39 SW6       30.73S THUNDER
BERTHOUD PASS  HAZE      45  32  61 E7        30.79S THUNDER VSB<1/4
COTTONWOOD PAS CLOUDY    59  46  63 N7G23     30.56S
GUNNISON       PTSUNNY   66  50  55 CALM      30.40R
KREMMLING      MOSUNNY   73  50  43 CALM      30.37R
LEADVILLE      CLOUDY    66  42  41 N12G20    30.52R
MONARCH PASS   CLOUDY    52  37  58 NW8G16    30.83R
SALIDA         CLOUDY   N/A N/A N/A SE18G31   30.48R
SUNLIGHT       MOSUNNY   63  50  63 NW5       30.64S
WILKERSON PASS CLOUDY    46  45  93 E7        30.71F
$$

COZ069>075-130100-
...SAN LUIS VALLEY/SANGRE DE CRISTO MOUNTAINS...

CITY           SKY/WX    TMP DP  RH WIND       PRES   REMARKS
ALAMOSA        CLOUDY    68  46  45 E21G31    30.35R
LA VETA PASS   TSTM      46  45  93 W7        30.63R
SAGUACHE       NOT AVBL
$$

COZ035-036-038>040-130100-
...NORTHERN COLORADO FRONT RANGE...

CITY           SKY/WX    TMP DP  RH WIND       PRES   REMARKS
DENVER INTL AP CLOUDY    70  62  76 CALM      30.29R
DMNS CITY PARK   N/A     71  62  72 E8        30.30R
AURORA         NOT AVBL
FRONT RANGE AP NOT AVBL
ERIE MUNI ARPT LGT RAIN  66  61  84 CALM      30.28S
BOULDER MUN AP CLOUDY    68  61  77 CALM      30.30S
CENTENNIAL     TSTM      63  59  87 NE12G21   30.33R
BROOMFIELD     CLOUDY    72  59  64 N20G29    30.33R
FORT COLLINS   CLOUDY    66  63  88 SW6       30.27F
LONGMONT       LGT RAIN  68  61  77 NW6       30.30F
$$

COZ041-046-047-076>085-087-088-130100-
...PIKES PEAK/PALMER DIVIDE AND SOUTHERN FOOTHILLS...

CITY           SKY/WX    TMP DP  RH WIND       PRES   REMARKS
COLO. SPRINGS  TSTM      71  61  70 N8        30.32F
A. F. ACADEMY  NOT AVBL
ELLICOTT       NOT AVBL
FALCON         CLOUDY    68  60  77 CALM      30.38S
FORT CARSON    NOT AVBL
LIMON          CLOUDY    78  56  46 NE13      30.25S
MONUMENT HILL  CLOUDY    68  55  64 SW13G25   30.40R HAZE
TRINIDAD       TSTM      64  56  75 NW21G30   30.26R
$$

COZ042>045-048>051-090-091-130100-
...NORTHEAST COLORADO...

CITY           SKY/WX    TMP DP  RH WIND       PRES   REMARKS
GREELEY ARPT   NOT AVBL
AKRON          PTSUNNY   80  59  48 N9        30.20F
BURLINGTON     SUNNY     82  61  48 NE10      30.16S
WRAY             N/A     85  62  47 NE12      30.14S
STERLING       MOSUNNY   82  64  54 NE7       30.17S
HOLYOKE        CLOUDY    82  61  47 NE9       30.16R
FORT MORGAN    MOSUNNY   80  56  42 NE8       30.21F
$$

COZ086-089-092>099-130100-
...SOUTHEAST COLORADO...

CITY           SKY/WX    TMP DP  RH WIND       PRES   REMARKS
PUEBLO         CLOUDY    78  61  55 NE9       30.19R
LA JUNTA       MOSUNNY   86  60  41 NE25G35   30.09S
LAMAR          MOSUNNY   93  60  33 NE20      30.05S
SPRINGFIELD      N/A     89  53  29 E6        30.09R
$$



USA.gov is the U.S. government's official web portal to all federal, state and local government web resources and services.